| time (UTC) | temp F | wind direction | speed knots | gust knots | rain 1hr in | rain 24hr in | rain mn in | humidity % | barometer mb |
| 20260831001408 | 84 | 318 | 1.7 | 2.6 | 0.00 | 0.00 | 0.00 | 72 | 1011.9 |
| 20260831000908 | 84 | 294 | 1.7 | 2.6 | 0.00 | 0.00 | 0.00 | 73 | 1011.8 |
| 20260830235907 | 84 | 244 | 1.7 | 2.6 | 0.00 | 0.00 | 0.00 | 78 | 1011.8 |
| 20260830235409 | 84 | 254 | 1.7 | 2.6 | 0.00 | 0.00 | 0.00 | 79 | 1011.7 |
| 20260830234908 | 84 | 257 | 1.7 | 2.6 | 0.00 | 0.00 | 0.00 | 79 | 1011.7 |
| 20260830234407 | 84 | 263 | 1.7 | 2.6 | 0.00 | 0.00 | 0.00 | 80 | 1011.7 |
| 20260830233908 | 84 | 258 | 0.9 | 2.6 | 0.00 | 0.00 | 0.00 | 81 | 1011.7 |
| 20260830233408 | 84 | 260 | 1.7 | 2.6 | 0.00 | 0.00 | 0.00 | 80 | 1011.6 |
| 20260830232908 | 85 | 266 | 1.7 | 2.6 | 0.00 | 0.00 | 0.00 | 80 | 1011.5 |
| 20260830232407 | 85 | 267 | 1.7 | 2.6 | 0.00 | 0.00 | 0.00 | 79 | 1011.5 |
| 20260830231908 | 85 | 246 | 0.9 | 1.7 | 0.00 | 0.00 | 0.00 | 79 | 1011.5 |
| 20260830231409 | 85 | 262 | 1.7 | 2.6 | 0.00 | 0.00 | 0.00 | 79 | 1011.5 |
| 20260830230908 | 85 | 261 | 1.7 | 2.6 | 0.00 | 0.00 | 0.00 | 80 | 1011.4 |
| 20260830230408 | 85 | 259 | 0.9 | 1.7 | 0.00 | 0.00 | 0.00 | 80 | 1011.4 |
| 20260830224908 | 85 | 247 | 1.7 | 2.6 | 0.00 | 0.00 | 0.00 | 80 | 1011.5 |
| 20260830224408 | 85 | 272 | 0.9 | 1.7 | 0.00 | 0.00 | 0.00 | 80 | 1011.5 |
| 20260830223912 | 85 | 294 | 0.9 | 1.7 | 0.00 | 0.00 | 0.00 | 80 | 1011.5 |
| 20260830223407 | 85 | 294 | 0.0 | 0.9 | 0.00 | 0.00 | 0.00 | 80 | 1011.5 |
| 20260830222908 | 85 | 294 | 0.9 | 1.7 | 0.00 | 0.00 | 0.00 | 80 | 1011.5 |
| 20260830222408 | 85 | 294 | 0.0 | 1.7 | 0.00 | 0.00 | 0.00 | 80 | 1011.6 |
| 20260830221908 | 85 | 305 | 0.9 | 1.7 | 0.00 | 0.00 | 0.00 | 80 | 1011.5 |
| 20260830221408 | 85 | 315 | 0.0 | 1.7 | 0.00 | 0.00 | 0.00 | 80 | 1011.5 |
| 20260830220908 | 85 | 70 | 0.0 | 0.9 | 0.00 | 0.00 | 0.00 | 80 | 1011.5 |
| 20260830220409 | 85 | 70 | 0.0 | 0.9 | 0.00 | 0.00 | 0.00 | 80 | 1011.5 |
| 20260830213908 | 85 | 86 | 0.9 | 2.6 | 0.00 | 0.00 | 0.00 | 81 | 1011.5 |
| 20260830213408 | 85 | 91 | 0.9 | 1.7 | 0.00 | 0.00 | 0.00 | 81 | 1011.4 |
| 20260830212908 | 85 | 65 | 0.9 | 1.7 | 0.00 | 0.00 | 0.00 | 81 | 1011.4 |
| 20260830212409 | 85 | 67 | 0.9 | 1.7 | 0.00 | 0.00 | 0.00 | 81 | 1011.3 |
| 20260830211908 | 85 | 47 | 0.9 | 2.6 | 0.00 | 0.00 | 0.00 | 81 | 1011.4 |
| 20260830210909 | 85 | 70 | 1.7 | 2.6 | 0.00 | 0.00 | 0.00 | 81 | 1011.3 |
| 20260830210407 | 85 | 84 | 0.9 | 2.6 | 0.00 | 0.00 | 0.00 | 81 | 1011.3 |
| 20260830205907 | 85 | 57 | 0.9 | 2.6 | 0.00 | 0.00 | 0.00 | 81 | 1011.3 |
| 20260830205407 | 85 | 80 | 1.7 | 2.6 | 0.00 | 0.00 | 0.00 | 81 | 1011.3 |
| 20260830204407 | 85 | 35 | 1.7 | 2.6 | 0.00 | 0.00 | 0.00 | 81 | 1011.3 |
| 20260830203908 | 85 | 91 | 0.9 | 2.6 | 0.00 | 0.00 | 0.00 | 80 | 1011.4 |
| 20260830202909 | 85 | 80 | 1.7 | 1.7 | 0.00 | 0.00 | 0.00 | 81 | 1011.4 |
| 20260830202408 | 85 | 66 | 0.9 | 2.6 | 0.00 | 0.00 | 0.00 | 80 | 1011.4 |
| 20260830201910 | 85 | 74 | 0.9 | 2.6 | 0.00 | 0.00 | 0.00 | 80 | 1011.4 |
| 20260830201408 | 85 | 61 | 1.7 | 2.6 | 0.00 | 0.00 | 0.00 | 80 | 1011.5 |
| 20260830200907 | 85 | 61 | 0.0 | 1.7 | 0.00 | 0.00 | 0.00 | 80 | 1011.4 |
| 20260830200406 | 85 | 92 | 0.9 | 2.6 | 0.00 | 0.00 | 0.00 | 80 | 1011.4 |
| 20260830195907 | 85 | 76 | 0.9 | 2.6 | 0.00 | 0.00 | 0.00 | 81 | 1011.4 |
| 20260830195406 | 85 | 29 | 0.9 | 2.6 | 0.00 | 0.00 | 0.00 | 81 | 1011.4 |
| 20260830194908 | 85 | 39 | 0.9 | 2.6 | 0.00 | 0.00 | 0.00 | 81 | 1011.3 |
| 20260830194406 | 85 | 63 | 0.0 | 2.6 | 0.00 | 0.00 | 0.00 | 81 | 1011.4 |
| 20260830193908 | 85 | 46 | 0.0 | 1.7 | 0.00 | 0.00 | 0.00 | 82 | 1011.3 |
| 20260830193408 | 85 | 89 | 0.9 | 2.6 | 0.00 | 0.00 | 0.00 | 82 | 1011.4 |
| 20260830192408 | 85 | 110 | 0.9 | 2.6 | 0.00 | 0.00 | 0.00 | 82 | 1011.3 |
| 20260830191908 | 85 | 120 | 0.9 | 2.6 | 0.00 | 0.00 | 0.00 | 82 | 1011.4 |
| 20260830191407 | 85 | 126 | 1.7 | 2.6 | 0.00 | 0.00 | 0.00 | 82 | 1011.3 |
| 20260830190908 | 85 | 115 | 1.7 | 2.6 | 0.00 | 0.00 | 0.00 | 81 | 1011.4 |
| 20260830190407 | 85 | 124 | 1.7 | 2.6 | 0.00 | 0.00 | 0.00 | 81 | 1011.3 |
| 20260830185907 | 85 | 95 | 1.7 | 2.6 | 0.00 | 0.00 | 0.00 | 80 | 1011.3 |
| 20260830184414 | 86 | 135 | 1.7 | 2.6 | 0.00 | 0.00 | 0.00 | 79 | 1011.1 |
| 20260830183908 | 86 | 141 | 0.9 | 2.6 | 0.00 | 0.00 | 0.00 | 78 | 1011.2 |
| 20260830183409 | 86 | 124 | 1.7 | 2.6 | 0.00 | 0.00 | 0.00 | 78 | 1011.1 |
| 20260830182908 | 86 | 83 | 1.7 | 4.3 | 0.00 | 0.00 | 0.00 | 78 | 1011.0 |
| 20260830182408 | 86 | 127 | 1.7 | 4.3 | 0.00 | 0.00 | 0.00 | 77 | 1010.8 |
| 20260830181907 | 86 | 120 | 1.7 | 2.6 | 0.00 | 0.00 | 0.00 | 77 | 1010.9 |
| 20260830180908 | 86 | 142 | 1.7 | 2.6 | 0.00 | 0.00 | 0.00 | 76 | 1010.7 |
| 20260830180408 | 86 | 115 | 1.7 | 2.6 | 0.00 | 0.00 | 0.00 | 76 | 1010.7 |
| 20260830175907 | 86 | 119 | 1.7 | 2.6 | 0.00 | 0.00 | 0.00 | 75 | 1010.7 |
| 20260830175408 | 86 | 127 | 1.7 | 2.6 | 0.00 | 0.00 | 0.00 | 75 | 1010.6 |
| 20260830174908 | 86 | 112 | 1.7 | 2.6 | 0.00 | 0.00 | 0.00 | 75 | 1010.6 |
| 20260830174412 | 86 | 146 | 1.7 | 2.6 | 0.00 | 0.00 | 0.00 | 75 | 1010.5 |
| 20260830173907 | 86 | 120 | 1.7 | 4.3 | 0.00 | 0.00 | 0.00 | 74 | 1010.5 |
| 20260830173407 | 86 | 154 | 1.7 | 4.3 | 0.00 | 0.00 | 0.00 | 74 | 1010.6 |
| 20260830172907 | 87 | 135 | 1.7 | 4.3 | 0.00 | 0.00 | 0.00 | 74 | 1010.5 |
| 20260830172407 | 87 | 153 | 1.7 | 5.2 | 0.00 | 0.00 | 0.00 | 74 | 1010.5 |
| 20260830171908 | 87 | 116 | 1.7 | 4.3 | 0.00 | 0.00 | 0.00 | 73 | 1010.5 |
| 20260830171407 | 87 | 145 | 1.7 | 2.6 | 0.00 | 0.00 | 0.00 | 73 | 1010.5 |
| 20260830170907 | 87 | 133 | 1.7 | 5.2 | 0.00 | 0.00 | 0.00 | 73 | 1010.5 |
| 20260830170408 | 87 | 134 | 1.7 | 2.6 | 0.00 | 0.00 | 0.00 | 73 | 1010.5 |
| 20260830165908 | 87 | 115 | 1.7 | 2.6 | 0.00 | 0.00 | 0.00 | 72 | 1010.5 |
| 20260830165408 | 87 | 104 | 2.6 | 5.2 | 0.00 | 0.00 | 0.00 | 71 | 1010.5 |
| 20260830164908 | 88 | 92 | 0.9 | 5.2 | 0.00 | 0.00 | 0.00 | 71 | 1010.5 |
| 20260830164409 | 88 | 122 | 1.7 | 2.6 | 0.00 | 0.00 | 0.00 | 70 | 1010.6 |
| 20260830163907 | 88 | 158 | 1.7 | 2.6 | 0.00 | 0.00 | 0.00 | 69 | 1010.6 |
| 20260830163408 | 88 | 124 | 1.7 | 4.3 | 0.00 | 0.00 | 0.00 | 69 | 1010.6 |
| 20260830162907 | 89 | 143 | 2.6 | 5.2 | 0.00 | 0.00 | 0.00 | 67 | 1010.7 |
| 20260830162407 | 89 | 139 | 2.6 | 5.2 | 0.00 | 0.00 | 0.00 | 65 | 1010.7 |
| 20260830161907 | 89 | 96 | 2.6 | 6.1 | 0.00 | 0.00 | 0.00 | 64 | 1010.7 |
| 20260830161408 | 89 | 180 | 2.6 | 4.3 | 0.00 | 0.00 | 0.00 | 64 | 1010.7 |
| 20260830160907 | 89 | 109 | 2.6 | 6.1 | 0.00 | 0.00 | 0.00 | 62 | 1010.7 |
| 20260830160408 | 90 | 133 | 2.6 | 6.1 | 0.00 | 0.00 | 0.00 | 63 | 1010.8 |
| 20260830155906 | 90 | 104 | 2.6 | 4.3 | 0.00 | 0.00 | 0.00 | 64 | 1010.7 |
| 20260830154908 | 91 | 122 | 1.7 | 2.6 | 0.00 | 0.00 | 0.00 | 63 | 1010.8 |
| 20260830154413 | 90 | 115 | 2.6 | 5.2 | 0.00 | 0.00 | 0.00 | 61 | 1010.8 |
| 20260830153907 | 91 | 125 | 2.6 | 6.1 | 0.00 | 0.00 | 0.00 | 58 | 1010.9 |
| 20260830153408 | 91 | 65 | 1.7 | 2.6 | 0.00 | 0.00 | 0.00 | 60 | 1010.9 |
| 20260830152909 | 91 | 135 | 1.7 | 5.2 | 0.00 | 0.00 | 0.00 | 59 | 1011.0 |
| 20260830151908 | 92 | 103 | 1.7 | 2.6 | 0.00 | 0.00 | 0.00 | 57 | 1011.1 |
| 20260830151407 | 92 | 134 | 2.6 | 4.3 | 0.00 | 0.00 | 0.00 | 56 | 1011.0 |
| 20260830150908 | 92 | 132 | 2.6 | 4.3 | 0.00 | 0.00 | 0.00 | 56 | 1011.0 |
| 20260830150407 | 92 | 143 | 1.7 | 4.3 | 0.00 | 0.00 | 0.00 | 54 | 1011.0 |
| 20260830145908 | 92 | 154 | 2.6 | 5.2 | 0.00 | 0.00 | 0.00 | 52 | 1011.0 |
| 20260830145408 | 92 | 149 | 2.6 | 5.2 | 0.00 | 0.00 | 0.00 | 50 | 1011.0 |
| 20260830144907 | 92 | 138 | 2.6 | 4.3 | 0.00 | 0.00 | 0.00 | 50 | 1011.0 |
| 20260830144407 | 92 | 120 | 1.7 | 4.3 | 0.00 | 0.00 | 0.00 | 49 | 1011.1 |
| 20260830143908 | 92 | 134 | 2.6 | 5.2 | 0.00 | 0.00 | 0.00 | 49 | 1011.1 |
| 20260830143408 | 92 | 156 | 1.7 | 4.3 | 0.00 | 0.00 | 0.00 | 50 | 1011.2 |
| 20260830142907 | 92 | 137 | 2.6 | 4.3 | 0.00 | 0.00 | 0.00 | 48 | 1011.2 |
| 20260830142408 | 93 | 134 | 1.7 | 4.3 | 0.00 | 0.00 | 0.00 | 51 | 1011.3 |
| 20260830141908 | 93 | 134 | 1.7 | 2.6 | 0.00 | 0.00 | 0.00 | 50 | 1011.3 |
| 20260830141407 | 93 | 168 | 2.6 | 4.3 | 0.00 | 0.00 | 0.00 | 50 | 1011.3 |
| 20260830140907 | 93 | 138 | 1.7 | 4.3 | 0.00 | 0.00 | 0.00 | 50 | 1011.3 |
| 20260830140407 | 93 | 152 | 2.6 | 5.2 | 0.00 | 0.00 | 0.00 | 50 | 1011.4 |
| 20260830135407 | 94 | 131 | 1.7 | 2.6 | 0.00 | 0.00 | 0.00 | 46 | 1011.4 |
| 20260830134908 | 94 | 47 | 1.7 | 2.6 | 0.00 | 0.00 | 0.00 | 47 | 1011.4 |
| 20260830134407 | 94 | 143 | 1.7 | 4.3 | 0.00 | 0.00 | 0.00 | 44 | 1011.5 |
| 20260830133908 | 94 | 141 | 2.6 | 5.2 | 0.00 | 0.00 | 0.00 | 44 | 1011.5 |
| 20260830133408 | 94 | 132 | 1.7 | 5.2 | 0.00 | 0.00 | 0.00 | 41 | 1011.5 |
| 20260830132907 | 94 | 131 | 1.7 | 4.3 | 0.00 | 0.00 | 0.00 | 42 | 1011.6 |
| 20260830132408 | 94 | 140 | 2.6 | 4.3 | 0.00 | 0.00 | 0.00 | 41 | 1011.7 |
| 20260830131907 | 94 | 160 | 2.6 | 7.8 | 0.00 | 0.00 | 0.00 | 38 | 1011.7 |
| 20260830131407 | 95 | 136 | 2.6 | 5.2 | 0.00 | 0.00 | 0.00 | 39 | 1011.8 |
| 20260830130407 | 96 | 110 | 1.7 | 2.6 | 0.00 | 0.00 | 0.00 | 35 | 1011.9 |
| 20260830125908 | 96 | 153 | 2.6 | 4.3 | 0.00 | 0.00 | 0.00 | 34 | 1012.0 |
| 20260830125408 | 96 | 162 | 0.9 | 2.6 | 0.00 | 0.00 | 0.00 | 34 | 1012.0 |
| 20260830124907 | 95 | 129 | 2.6 | 4.3 | 0.00 | 0.00 | 0.00 | 34 | 1012.0 |
| 20260830124408 | 95 | 145 | 1.7 | 5.2 | 0.00 | 0.00 | 0.00 | 36 | 1012.0 |
| 20260830123907 | 95 | 142 | 2.6 | 4.3 | 0.00 | 0.00 | 0.00 | 38 | 1012.1 |
| 20260830123407 | 95 | 136 | 3.5 | 7.0 | 0.00 | 0.00 | 0.00 | 37 | 1012.1 |
| 20260830122907 | 96 | 139 | 1.7 | 5.2 | 0.00 | 0.00 | 0.00 | 37 | 1012.1 |
| 20260830122407 | 96 | 124 | 2.6 | 4.3 | 0.00 | 0.00 | 0.00 | 36 | 1012.2 |
| 20260830121908 | 95 | 325 | 0.9 | 2.6 | 0.00 | 0.00 | 0.00 | 37 | 1012.2 |
| 20260830121408 | 95 | 133 | 1.7 | 2.6 | 0.00 | 0.00 | 0.00 | 37 | 1012.3 |
| 20260830120907 | 95 | 160 | 1.7 | 2.6 | 0.00 | 0.00 | 0.00 | 39 | 1012.4 |
| 20260830120408 | 95 | 139 | 1.7 | 4.3 | 0.00 | 0.00 | 0.00 | 37 | 1012.5 |
| 20260830115907 | 96 | 132 | 1.7 | 2.6 | 0.00 | 0.00 | 0.00 | 39 | 1012.5 |
| 20260830115407 | 95 | 148 | 1.7 | 4.3 | 0.00 | 0.00 | 0.00 | 39 | 1012.5 |
| 20260830114908 | 95 | 134 | 1.7 | 2.6 | 0.00 | 0.00 | 0.00 | 40 | 1012.6 |
| 20260830114407 | 96 | 137 | 1.7 | 2.6 | 0.00 | 0.00 | 0.00 | 38 | 1012.6 |
| 20260830113907 | 96 | 135 | 1.7 | 2.6 | 0.00 | 0.00 | 0.00 | 40 | 1012.6 |
| 20260830113408 | 96 | 131 | 1.7 | 2.6 | 0.00 | 0.00 | 0.00 | 41 | 1012.6 |
| 20260830112906 | 95 | 132 | 0.9 | 2.6 | 0.00 | 0.00 | 0.00 | 40 | 1012.6 |
| 20260830112408 | 95 | 113 | 1.7 | 2.6 | 0.00 | 0.00 | 0.00 | 41 | 1012.6 |
| 20260830111905 | 95 | 142 | 1.7 | 2.6 | 0.00 | 0.00 | 0.00 | 43 | 1012.7 |
| 20260830111407 | 94 | 125 | 1.7 | 2.6 | 0.00 | 0.00 | 0.00 | 44 | 1012.7 |
| 20260830110907 | 94 | 149 | 1.7 | 2.6 | 0.00 | 0.00 | 0.00 | 41 | 1012.7 |
| 20260830110407 | 95 | 146 | 2.6 | 2.6 | 0.00 | 0.00 | 0.00 | 42 | 1012.8 |
| 20260830105907 | 95 | 160 | 0.9 | 2.6 | 0.00 | 0.00 | 0.00 | 42 | 1012.9 |
| 20260830105410 | 95 | 228 | 1.7 | 2.6 | 0.00 | 0.00 | 0.00 | 41 | 1012.9 |
| 20260830104408 | 94 | 117 | 1.7 | 2.6 | 0.00 | 0.00 | 0.00 | 42 | 1013.0 |
| 20260830103908 | 94 | 114 | 1.7 | 2.6 | 0.00 | 0.00 | 0.00 | 43 | 1012.9 |
| 20260830103409 | 94 | 183 | 0.9 | 2.6 | 0.00 | 0.00 | 0.00 | 43 | 1013.0 |
| 20260830102907 | 94 | 217 | 1.7 | 2.6 | 0.00 | 0.00 | 0.00 | 44 | 1013.0 |
| 20260830102408 | 94 | 131 | 1.7 | 2.6 | 0.00 | 0.00 | 0.00 | 46 | 1013.0 |
| 20260830101906 | 93 | 203 | 0.9 | 2.6 | 0.00 | 0.00 | 0.00 | 46 | 1013.1 |
| 20260830101408 | 93 | 274 | 1.7 | 2.6 | 0.00 | 0.00 | 0.00 | 46 | 1013.2 |
| 20260830100906 | 93 | 216 | 0.9 | 2.6 | 0.00 | 0.00 | 0.00 | 43 | 1013.2 |
| 20260830100407 | 93 | 178 | 0.9 | 2.6 | 0.00 | 0.00 | 0.00 | 42 | 1013.3 |
| 20260830095906 | 93 | 196 | 1.7 | 2.6 | 0.00 | 0.00 | 0.00 | 41 | 1013.3 |
| 20260830095407 | 93 | 235 | 0.9 | 2.6 | 0.00 | 0.00 | 0.00 | 40 | 1013.4 |
| 20260830094907 | 93 | 54 | 0.9 | 2.6 | 0.00 | 0.00 | 0.00 | 41 | 1013.4 |
| 20260830094407 | 93 | 133 | 0.9 | 2.6 | 0.00 | 0.00 | 0.00 | 42 | 1013.5 |
| 20260830093908 | 94 | 155 | 1.7 | 2.6 | 0.00 | 0.00 | 0.00 | 43 | 1013.5 |
| 20260830092907 | 93 | 145 | 1.7 | 2.6 | 0.00 | 0.00 | 0.00 | 41 | 1013.6 |
| 20260830092407 | 93 | 275 | 1.7 | 2.6 | 0.00 | 0.00 | 0.00 | 42 | 1013.7 |
| 20260830091907 | 93 | 232 | 0.9 | 2.6 | 0.00 | 0.00 | 0.00 | 45 | 1013.7 |
| 20260830091407 | 92 | 261 | 1.7 | 2.6 | 0.00 | 0.00 | 0.00 | 46 | 1013.7 |
| 20260830090408 | 91 | 234 | 1.7 | 2.6 | 0.00 | 0.00 | 0.00 | 53 | 1013.7 |
| 20260830085908 | 89 | 215 | 1.7 | 2.6 | 0.00 | 0.00 | 0.00 | 50 | 1013.7 |
| 20260830085408 | 88 | 241 | 1.7 | 2.6 | 0.00 | 0.00 | 0.00 | 61 | 1013.8 |
| 20260830084907 | 88 | 278 | 1.7 | 2.6 | 0.00 | 0.00 | 0.00 | 63 | 1013.8 |
| 20260830084410 | 88 | 300 | 1.7 | 2.6 | 0.00 | 0.00 | 0.00 | 60 | 1013.9 |
| 20260830083907 | 88 | 260 | 1.7 | 2.6 | 0.00 | 0.00 | 0.00 | 57 | 1013.9 |
| 20260830081906 | 89 | 279 | 1.7 | 2.6 | 0.00 | 0.00 | 0.00 | 50 | 1014.0 |
| 20260830081406 | 90 | 267 | 1.7 | 2.6 | 0.00 | 0.00 | 0.00 | 47 | 1013.9 |
| 20260830080907 | 92 | 249 | 1.7 | 2.6 | 0.00 | 0.00 | 0.00 | 43 | 1013.9 |
| 20260830080406 | 93 | 242 | 1.7 | 2.6 | 0.00 | 0.00 | 0.00 | 40 | 1013.8 |
| 20260830075907 | 93 | 167 | 0.9 | 2.6 | 0.00 | 0.00 | 0.00 | 33 | 1013.7 |
| 20260830075407 | 93 | 130 | 1.7 | 2.6 | 0.00 | 0.00 | 0.00 | 33 | 1013.6 |
| 20260830074906 | 93 | 111 | 1.7 | 2.6 | 0.00 | 0.00 | 0.00 | 33 | 1013.6 |
| 20260830074408 | 93 | 102 | 0.0 | 2.6 | 0.00 | 0.00 | 0.00 | 34 | 1013.7 |
| 20260830073908 | 93 | 122 | 1.7 | 2.6 | 0.00 | 0.00 | 0.00 | 35 | 1013.7 |
| 20260830073408 | 92 | 126 | 0.0 | 0.0 | 0.00 | 0.00 | 0.00 | 35 | 1013.7 |
| 20260830072907 | 92 | 127 | 0.0 | 0.0 | 0.00 | 0.00 | 0.00 | 35 | 1013.7 |
| 20260830072407 | 91 | 126 | 0.0 | 0.0 | 0.00 | 0.00 | 0.00 | 35 | 1013.7 |
| 20260830071407 | 90 | 126 | 0.9 | 2.6 | 0.00 | 0.00 | 0.00 | 36 | 1013.4 |
| 20260830070907 | 89 | 119 | 0.9 | 2.6 | 0.00 | 0.00 | 0.00 | 37 | 1013.3 |
| 20260830070406 | 89 | 95 | 1.7 | 2.6 | 0.00 | 0.00 | 0.00 | 37 | 1013.3 |
| 20260830065907 | 88 | 75 | 2.6 | 2.6 | 0.00 | 0.00 | 0.00 | 38 | 1013.2 |
| 20260830065406 | 87 | 114 | 0.9 | 1.7 | 0.00 | 0.00 | 0.00 | 40 | 1013.3 |
| 20260830063407 | 87 | 74 | 0.0 | 0.0 | 0.00 | 0.00 | 0.00 | 41 | 1013.5 |
| 20260830062907 | 87 | 73 | 0.0 | 1.7 | 0.00 | 0.00 | 0.00 | 41 | 1013.5 |
| 20260830062408 | 87 | 89 | 0.9 | 2.6 | 0.00 | 0.00 | 0.00 | 41 | 1013.3 |
| 20260830061907 | 86 | 109 | 0.9 | 2.6 | 0.00 | 0.00 | 0.00 | 41 | 1013.3 |
| 20260830061408 | 86 | 172 | 0.9 | 2.6 | 0.00 | 0.00 | 0.00 | 41 | 1013.3 |
| 20260830060907 | 86 | 298 | 0.0 | 2.6 | 0.00 | 0.00 | 0.00 | 42 | 1013.6 |
| 20260830055906 | 85 | 108 | 0.9 | 1.7 | 0.00 | 0.00 | 0.00 | 42 | 1013.8 |
| 20260830055407 | 85 | 91 | 0.9 | 2.6 | 0.00 | 0.00 | 0.00 | 43 | 1013.3 |
| 20260830054407 | 85 | 81 | 0.9 | 2.6 | 0.00 | 0.00 | 0.00 | 44 | 1013.6 |
| 20260830053406 | 84 | 63 | 0.0 | 1.7 | 0.00 | 0.00 | 0.00 | 46 | 1013.7 |
| 20260830052407 | 83 | 63 | 0.0 | 0.9 | 0.00 | 0.00 | 0.00 | 49 | 1013.6 |
| 20260830051907 | 83 | 64 | 0.9 | 2.6 | 0.00 | 0.00 | 0.00 | 49 | 1013.6 |
| 20260830051407 | 83 | 73 | 0.9 | 2.6 | 0.00 | 0.00 | 0.00 | 52 | 1013.5 |
| 20260830050907 | 83 | 103 | 0.9 | 2.6 | 0.00 | 0.00 | 0.00 | 53 | 1013.5 |
| 20260830045907 | 84 | 253 | 0.0 | 0.0 | 0.00 | 0.00 | 0.00 | 53 | 1013.5 |
| 20260830044906 | 85 | 258 | 0.0 | 0.0 | 0.00 | 0.00 | 0.00 | 52 | 1013.7 |
| 20260830043906 | 85 | 258 | 0.0 | 0.9 | 0.00 | 0.00 | 0.00 | 54 | 1013.7 |
| 20260830043407 | 85 | 258 | 0.0 | 1.7 | 0.00 | 0.00 | 0.00 | 54 | 1013.8 |
| 20260830042907 | 85 | 258 | 1.7 | 2.6 | 0.00 | 0.00 | 0.00 | 53 | 1013.8 |
| 20260830042407 | 85 | 256 | 0.9 | 1.7 | 0.00 | 0.00 | 0.00 | 53 | 1013.8 |
| 20260830041907 | 85 | 262 | 0.9 | 1.7 | 0.00 | 0.00 | 0.00 | 53 | 1013.7 |
| 20260830041406 | 85 | 281 | 0.0 | 1.7 | 0.00 | 0.00 | 0.00 | 52 | 1013.7 |
| 20260830040915 | 85 | 302 | 0.0 | 0.0 | 0.00 | 0.00 | 0.00 | 51 | 1013.7 |
| 20260830035907 | 86 | 302 | 0.0 | 1.7 | 0.00 | 0.00 | 0.00 | 50 | 1013.7 |
| 20260830035408 | 86 | 302 | 0.0 | 0.9 | 0.00 | 0.00 | 0.00 | 52 | 1013.7 |
| 20260830034907 | 85 | 302 | 0.9 | 1.7 | 0.00 | 0.00 | 0.00 | 51 | 1013.7 |
| 20260830034407 | 85 | 281 | 0.0 | 1.7 | 0.00 | 0.00 | 0.00 | 55 | 1013.7 |
| 20260830033907 | 85 | 282 | 0.9 | 2.6 | 0.00 | 0.00 | 0.00 | 56 | 1013.7 |
| 20260830033408 | 85 | 309 | 0.9 | 2.6 | 0.00 | 0.00 | 0.00 | 57 | 1013.7 |
| 20260830032407 | 85 | 293 | 0.9 | 2.6 | 0.00 | 0.00 | 0.00 | 63 | 1013.7 |
| 20260830031906 | 85 | 245 | 0.9 | 2.6 | 0.00 | 0.00 | 0.00 | 63 | 1013.7 |
| 20260830031407 | 85 | 288 | 0.9 | 2.6 | 0.00 | 0.00 | 0.00 | 65 | 1013.7 |
| 20260830030906 | 84 | 273 | 1.7 | 2.6 | 0.00 | 0.00 | 0.00 | 65 | 1013.7 |
| 20260830030407 | 85 | 271 | 1.7 | 2.6 | 0.00 | 0.00 | 0.00 | 65 | 1013.8 |
| 20260830025906 | 85 | 264 | 1.7 | 2.6 | 0.00 | 0.00 | 0.00 | 65 | 1013.8 |
| 20260830025406 | 85 | 266 | 1.7 | 2.6 | 0.00 | 0.00 | 0.00 | 63 | 1013.8 |
| 20260830024906 | 85 | 275 | 1.7 | 2.6 | 0.00 | 0.00 | 0.00 | 62 | 1013.8 |
| 20260830023907 | 85 | 261 | 1.7 | 1.7 | 0.00 | 0.00 | 0.00 | 60 | 1013.9 |
| 20260830022907 | 85 | 247 | 1.7 | 2.6 | 0.00 | 0.00 | 0.00 | 55 | 1013.8 |
| 20260830022407 | 85 | 249 | 0.9 | 1.7 | 0.00 | 0.00 | 0.00 | 55 | 1013.9 |
| 20260830021906 | 85 | 236 | 0.9 | 1.7 | 0.00 | 0.00 | 0.00 | 52 | 1013.8 |
| 20260830021406 | 85 | 217 | 0.9 | 1.7 | 0.00 | 0.00 | 0.00 | 50 | 1013.8 |
| 20260830020406 | 84 | 121 | 0.0 | 0.0 | 0.00 | 0.00 | 0.00 | 44 | 1013.8 |
| 20260830015406 | 84 | 115 | 0.9 | 1.7 | 0.00 | 0.00 | 0.00 | 44 | 1013.7 |
| 20260830014906 | 84 | 115 | 0.9 | 1.7 | 0.00 | 0.00 | 0.00 | 44 | 1013.7 |
| 20260830014407 | 84 | 119 | 0.9 | 1.7 | 0.00 | 0.00 | 0.00 | 44 | 1013.7 |
| 20260830013906 | 84 | 103 | 0.0 | 1.7 | 0.00 | 0.00 | 0.00 | 44 | 1013.7 |
| 20260830013407 | 84 | 108 | 0.9 | 2.6 | 0.00 | 0.00 | 0.00 | 44 | 1013.8 |
| 20260830012906 | 85 | 126 | 1.7 | 2.6 | 0.00 | 0.00 | 0.00 | 44 | 1013.7 |
| 20260830012407 | 85 | 174 | 0.9 | 2.6 | 0.00 | 0.00 | 0.00 | 45 | 1013.7 |
| 20260830011407 | 86 | 225 | 0.0 | 0.9 | 0.00 | 0.00 | 0.00 | 52 | 1013.7 |
| 20260830010907 | 86 | 225 | 0.0 | 1.7 | 0.00 | 0.00 | 0.00 | 55 | 1013.7 |
| 20260830010406 | 86 | 227 | 0.9 | 2.6 | 0.00 | 0.00 | 0.00 | 55 | 1013.7 |
| 20260830005907 | 86 | 231 | 1.7 | 2.6 | 0.00 | 0.00 | 0.00 | 52 | 1013.7 |
| 20260830005407 | 86 | 251 | 0.9 | 2.6 | 0.00 | 0.00 | 0.00 | 51 | 1013.6 |
| 20260830004407 | 87 | 254 | 1.7 | 2.6 | 0.00 | 0.00 | 0.00 | 52 | 1013.6 |
| 20260830003907 | 87 | 254 | 0.9 | 1.7 | 0.00 | 0.00 | 0.00 | 54 | 1013.6 |
| 20260830003407 | 87 | 253 | 0.9 | 1.7 | 0.00 | 0.00 | 0.00 | 51 | 1013.6 |
| 20260830002407 | 88 | 250 | 1.7 | 1.7 | 0.00 | 0.00 | 0.00 | 47 | 1013.5 |
| 20260830001906 | 88 | 270 | 1.7 | 2.6 | 0.00 | 0.00 | 0.00 | 47 | 1013.5 |